TimeMST,TemperatureF,Dew PointF,Humidity,Sea Level PressureIn,VisibilityMPH,Wind Direction,Wind SpeedMPH,Gust SpeedMPH,PrecipitationIn,Events,Conditions,WindDirDegrees,DateUTC
12:53 AM,46.9,27.0,46,29.88,10.0,SSW,10.4,-,N/A,,Clear,210,2013-01-24 07:53:00
1:53 AM,46.0,27.0,47,29.86,10.0,SW,21.9,-,N/A,,Clear,230,2013-01-24 08:53:00
2:53 AM,46.0,28.0,50,29.88,10.0,WSW,21.9,35.7,N/A,,Clear,240,2013-01-24 09:53:00
3:53 AM,46.9,28.0,48,29.86,10.0,SW,29.9,38.0,N/A,,Clear,230,2013-01-24 10:53:00
4:53 AM,46.9,28.0,48,29.90,10.0,SW,19.6,27.6,N/A,,Clear,220,2013-01-24 11:53:00
5:53 AM,44.1,28.0,53,29.90,10.0,WSW,25.3,34.5,N/A,,Clear,240,2013-01-24 12:53:00
6:53 AM,42.1,28.9,60,29.91,10.0,SW,19.6,-,N/A,,Clear,230,2013-01-24 13:53:00
7:53 AM,42.1,27.0,55,29.94,10.0,West,24.2,27.6,N/A,,Clear,260,2013-01-24 14:53:00
8:53 AM,43.0,21.9,43,29.98,10.0,West,26.5,34.5,N/A,,Clear,270,2013-01-24 15:53:00
9:53 AM,45.0,21.9,40,30.01,10.0,West,25.3,-,N/A,,Clear,260,2013-01-24 16:53:00
10:53 AM,45.0,19.9,37,30.03,10.0,West,23.0,36.8,N/A,,Mostly Cloudy,270,2013-01-24 17:53:00
11:53 AM,46.9,21.0,36,30.02,10.0,West,24.2,35.7,N/A,,Mostly Cloudy,270,2013-01-24 18:53:00
12:53 PM,46.9,19.9,34,30.00,10.0,WSW,24.2,29.9,N/A,,Clear,250,2013-01-24 19:53:00
1:53 PM,46.9,19.9,34,30.01,10.0,WSW,24.2,28.8,N/A,,Clear,250,2013-01-24 20:53:00
2:53 PM,46.0,21.0,37,30.03,10.0,WSW,20.7,-,N/A,,Clear,250,2013-01-24 21:53:00
3:53 PM,45.0,19.0,36,30.05,10.0,West,13.8,-,N/A,,Clear,260,2013-01-24 22:53:00
4:53 PM,37.9,21.0,51,30.07,10.0,WSW,11.5,-,N/A,,Clear,240,2013-01-24 23:53:00
5:53 PM,35.1,19.9,54,30.10,10.0,SW,11.5,-,N/A,,Clear,230,2013-01-25 00:53:00
6:53 PM,34.0,18.0,52,30.12,10.0,WSW,10.4,-,N/A,,Clear,250,2013-01-25 01:53:00
7:53 PM,34.0,17.1,50,30.13,10.0,SW,8.1,-,N/A,,Clear,220,2013-01-25 02:53:00
8:53 PM,36.0,19.0,50,30.11,10.0,WSW,15.0,-,N/A,,Clear,240,2013-01-25 03:53:00
9:53 PM,37.9,21.0,51,30.07,-9999.0,SW,20.7,-,N/A,,Clear,230,2013-01-25 04:53:00
10:53 PM,39.9,21.9,49,30.08,10.0,SW,15.0,-,N/A,,Mostly Cloudy,220,2013-01-25 05:53:00
11:53 PM,41.0,24.1,51,30.07,10.0,SW,15.0,-,N/A,,Overcast,220,2013-01-25 06:53:00